Weather History for KFFM - May, 2013

Change the Weather History Date:

Thursday, May 30, 2013

  Actual Average Record
Temperature  
Mean Temperature 68 °F -  
Max Temperature 77 °F 73 °F 89 °F (2014)
Min Temperature 59 °F 49 °F 35 °F (2001)
Cooling Degree Days 3    
Growing Degree Days 18 (Base 50)    
Moisture  
Dew Point 61 °F    
Average Humidity 82    
Maximum Humidity 100    
Minimum Humidity 53    
Precipitation  
Precipitation 0.36 in - - ()
Sea Level Pressure  
Sea Level Pressure 29.47 in    
Wind  
Wind Speed 13 mph (SE)    
Max Wind Speed 23 mph    
Max Gust Speed 31 mph    
Visibility 10 miles    
Events Rain , Thunderstorm    
Averages and records for this station are not official NWS values.
T = Trace of Precipitation, MM = Missing Value Source: NWS Daily Summary

Daily Weather History Graph

Daily Weather History Graph

Search for Another Location

Airport or City:

Trip Planner

Search our weather history database for the weather conditions in past years. The results will help you decide how hot, cold, wet, or windy it might be!

Date:

Astronomy

May. 30, 2013 Rise Set
Actual Time 5:37 AM CDT 9:07 PM CDT
Civil Twilight 4:59 AM CDT 9:45 PM CDT
Nautical Twilight 4:10 AM CDT 10:35 PM CDT
Astronomical Twilight 3:05 AM CDT 11:40 PM CDT
Moon 12:56 AM CDT (5/30) 12:01 PM CDT (5/30)
Length of Visible Light 16h 45m
Length of Day
15h 30m
Waning Gibbous, 62% of the Moon is Illuminated
May 30
Waning Gibbous
May 31
Last Quarter
Jun 8
New
Jun 16
First Quarter
Jun 23
Full

Hourly Weather History & Observations

Time (CDT) Temp. Dew Point Humidity Pressure Visibility Wind Dir Wind Speed Gust Speed Precip Events Conditions
12:13 AM 62.6 °F 62.6 °F 100% 29.55 in 10.0 mi East 6.9 mph - N/A   Scattered Clouds
12:33 AM 62.6 °F 62.6 °F 100% 29.55 in 10.0 mi East 9.2 mph - N/A   Clear
12:53 AM 62.6 °F 62.6 °F 100% 29.56 in 10.0 mi East 10.4 mph - N/A   Scattered Clouds
1:13 AM 62.6 °F 62.6 °F 100% 29.56 in 10.0 mi East 9.2 mph - N/A   Mostly Cloudy
1:34 AM 64.4 °F 62.6 °F 94% 29.55 in 10.0 mi ENE 10.4 mph - N/A   Overcast
1:53 AM 64.4 °F 62.6 °F 94% 29.55 in 10.0 mi East 10.4 mph - N/A   Overcast
2:13 AM 64.4 °F 62.6 °F 94% 29.55 in 10.0 mi East 6.9 mph - N/A   Overcast
2:34 AM 64.4 °F 62.6 °F 94% 29.54 in 7.0 mi East 5.8 mph - N/A   Overcast
2:53 AM 64.4 °F 64.4 °F 100% 29.51 in 7.0 mi East 5.8 mph - 0.01 in Rain Rain
3:13 AM 64.4 °F 64.4 °F 100% 29.50 in 5.0 mi ESE 8.1 mph - N/A   Overcast
3:34 AM 64.4 °F 64.4 °F 100% 29.50 in 7.0 mi ESE 11.5 mph 16.1 mph N/A   Overcast
3:53 AM 64.4 °F 64.4 °F 100% 29.51 in 10.0 mi SE 12.7 mph - N/A   Overcast
4:13 AM 64.4 °F 64.4 °F 100% 29.52 in 5.0 mi SSE 16.1 mph - N/A   Overcast
4:34 AM 64.4 °F 62.6 °F 94% 29.52 in 10.0 mi SE 16.1 mph - N/A   Overcast
4:53 AM 64.4 °F 62.6 °F 94% 29.51 in 10.0 mi SE 16.1 mph 23.0 mph N/A   Overcast
5:13 AM 64.4 °F 62.6 °F 94% 29.50 in 10.0 mi ESE 12.7 mph 17.3 mph N/A   Overcast
5:34 AM 64.4 °F 62.6 °F 94% 29.51 in 10.0 mi ESE 12.7 mph 17.3 mph N/A   Overcast
5:53 AM 64.4 °F 62.6 °F 94% 29.51 in 10.0 mi ESE 10.4 mph - N/A   Overcast
6:13 AM 64.4 °F 62.6 °F 94% 29.50 in 10.0 mi ESE 10.4 mph - N/A   Overcast
6:33 AM 64.4 °F 62.6 °F 94% 29.49 in 10.0 mi ESE 12.7 mph - N/A   Overcast
6:53 AM 64.4 °F 62.6 °F 94% 29.50 in 4.0 mi ESE 10.4 mph - N/A   Overcast
7:13 AM 64.4 °F 62.6 °F 94% 29.50 in 10.0 mi SE 12.7 mph - N/A   Overcast
7:33 AM 64.4 °F 62.6 °F 94% 29.48 in 10.0 mi ESE 12.7 mph 19.6 mph N/A   Mostly Cloudy
7:53 AM 64.4 °F 62.6 °F 94% 29.48 in 10.0 mi ESE 11.5 mph - N/A   Scattered Clouds
8:14 AM 66.2 °F 64.4 °F 94% 29.48 in 10.0 mi SE 13.8 mph - N/A   Mostly Cloudy
8:33 AM 66.2 °F 64.4 °F 94% 29.48 in 10.0 mi SE 16.1 mph - N/A   Overcast
8:53 AM 66.2 °F 62.6 °F 88% 29.47 in 10.0 mi SE 12.7 mph 19.6 mph N/A   Overcast
9:14 AM 66.2 °F 64.4 °F 94% 29.47 in 10.0 mi SE 15.0 mph 18.4 mph N/A   Overcast
9:33 AM 66.2 °F 64.4 °F 94% 29.47 in 10.0 mi SE 12.7 mph - N/A   Overcast
9:53 AM 66.2 °F 64.4 °F 94% 29.47 in 10.0 mi SSE 12.7 mph - N/A   Overcast
10:14 AM 66.2 °F 64.4 °F 94% 29.46 in 7.0 mi SSE 9.2 mph - N/A   Overcast
10:33 AM 66.2 °F 64.4 °F 94% 29.46 in 5.0 mi SSE 17.3 mph 25.3 mph N/A   Mostly Cloudy
10:53 AM 68.0 °F 64.4 °F 88% 29.46 in 10.0 mi SSE 18.4 mph 21.9 mph N/A   Mostly Cloudy
11:14 AM 69.8 °F 64.4 °F 83% 29.46 in 10.0 mi SSE 17.3 mph - N/A   Mostly Cloudy
11:33 AM 69.8 °F 62.6 °F 78% 29.46 in 10.0 mi SE 16.1 mph - N/A   Mostly Cloudy
11:53 AM 69.8 °F 62.6 °F 78% 29.47 in 10.0 mi SSE 19.6 mph 25.3 mph N/A   Mostly Cloudy
12:14 PM 69.8 °F 62.6 °F 78% 29.47 in 10.0 mi SSE 19.6 mph 25.3 mph N/A   Mostly Cloudy
12:33 PM 71.6 °F 62.6 °F 73% 29.47 in 10.0 mi South 21.9 mph 28.8 mph N/A   Mostly Cloudy
12:53 PM 73.4 °F 60.8 °F 65% 29.46 in 10.0 mi SSE 23.0 mph 31.1 mph N/A   Scattered Clouds
1:13 PM 73.4 °F 60.8 °F 65% 29.47 in 10.0 mi South 23.0 mph 29.9 mph N/A   Scattered Clouds
1:33 PM 73.4 °F 60.8 °F 65% 29.47 in 10.0 mi South 20.7 mph 29.9 mph N/A   Scattered Clouds
1:53 PM 75.2 °F 59.0 °F 57% 29.46 in 10.0 mi South 23.0 mph 27.6 mph N/A   Mostly Cloudy
2:13 PM 75.2 °F 59.0 °F 57% 29.46 in 10.0 mi SSE 20.7 mph 27.6 mph N/A   Scattered Clouds
2:33 PM 75.2 °F 57.2 °F 53% 29.46 in 10.0 mi South 20.7 mph - N/A   Scattered Clouds
2:53 PM 75.2 °F 59.0 °F 57% 29.46 in 10.0 mi South 20.7 mph 26.5 mph N/A   Mostly Cloudy
3:13 PM 75.2 °F 60.8 °F 61% 29.45 in 10.0 mi SSE 20.7 mph 27.6 mph N/A   Scattered Clouds
3:33 PM 77.0 °F 59.0 °F 54% 29.44 in 10.0 mi SSE 19.6 mph 24.2 mph N/A   Scattered Clouds
3:53 PM 77.0 °F 60.8 °F 57% 29.43 in 10.0 mi SSE 16.1 mph 25.3 mph N/A   Scattered Clouds
4:13 PM 77.0 °F 59.0 °F 54% 29.42 in 10.0 mi SSE 20.7 mph 25.3 mph N/A   Scattered Clouds
4:33 PM 75.2 °F 57.2 °F 53% 29.42 in 10.0 mi SSE 17.3 mph 23.0 mph N/A   Mostly Cloudy
4:53 PM 75.2 °F 57.2 °F 53% 29.42 in 10.0 mi SSE 19.6 mph 25.3 mph N/A   Mostly Cloudy
5:13 PM 73.4 °F 59.0 °F 61% 29.43 in 10.0 mi South 23.0 mph 29.9 mph N/A   Mostly Cloudy
5:33 PM 73.4 °F 57.2 °F 57% 29.43 in 10.0 mi SSE 23.0 mph - N/A   Mostly Cloudy
5:53 PM 73.4 °F 59.0 °F 61% 29.43 in 10.0 mi SSE 20.7 mph 27.6 mph N/A   Mostly Cloudy
6:13 PM 71.6 °F 59.0 °F 64% 29.44 in 10.0 mi SSE 15.0 mph - N/A   Scattered Clouds
6:33 PM 71.6 °F 59.0 °F 64% 29.44 in 10.0 mi SSE 17.3 mph 24.2 mph N/A   Mostly Cloudy
6:53 PM 71.6 °F 59.0 °F 64% 29.44 in 10.0 mi SSE 17.3 mph 25.3 mph N/A   Mostly Cloudy
7:13 PM 71.6 °F 59.0 °F 64% 29.43 in 10.0 mi SE 19.6 mph - N/A   Mostly Cloudy
7:34 PM 69.8 °F 60.8 °F 73% 29.43 in 10.0 mi SE 11.5 mph - N/A   Overcast
7:53 PM 68.0 °F 60.8 °F 78% 29.43 in 10.0 mi SE 11.5 mph 19.6 mph N/A   Overcast
8:13 PM 68.0 °F 60.8 °F 78% 29.44 in 10.0 mi SE 13.8 mph - N/A   Overcast
8:34 PM 66.2 °F 60.8 °F 83% 29.44 in 10.0 mi SE 11.5 mph - N/A   Overcast
8:53 PM 66.2 °F 60.8 °F 83% 29.45 in 10.0 mi SE 12.7 mph - N/A   Mostly Cloudy
9:13 PM 66.2 °F 60.8 °F 83% 29.45 in 10.0 mi SE 11.5 mph - N/A   Overcast
9:33 PM 66.2 °F 60.8 °F 83% 29.45 in 10.0 mi SE 11.5 mph - N/A   Overcast
9:53 PM 66.2 °F 60.8 °F 83% 29.45 in 10.0 mi ESE 13.8 mph - N/A   Overcast
10:13 PM 66.2 °F 60.8 °F 83% 29.45 in 10.0 mi ESE 11.5 mph 20.7 mph N/A Thunderstorm Overcast
10:34 PM 64.4 °F 60.8 °F 88% 29.46 in 7.0 mi SE 12.7 mph - 0.09 in Rain Heavy Rain
10:53 PM 62.6 °F 59.0 °F 88% 29.46 in 10.0 mi SSE 17.3 mph 24.2 mph 0.28 in Rain Rain
11:13 PM 59.0 °F 57.2 °F 94% 29.45 in 10.0 mi SE 6.9 mph - 0.02 in Thunderstorm Drizzle
11:33 PM 59.0 °F 57.2 °F 94% 29.47 in 10.0 mi South 8.1 mph - 0.04 in Rain Light Rain
11:53 PM 59.0 °F 57.2 °F 94% 29.46 in 10.0 mi SE 5.8 mph - 0.07 in Rain Light Rain